Location: Góry Miechowskie
(50.3599°N, 20.1803°E)
Time: 13:01:21
(UTC+00:00)

Vanguard 1 Rocket - Pass Details

Date: 15 September 2024
Orbit: 650 x 4218 km, 34.3° (Epoch: 12 October)

Event Time Altitude Azimuth Distance (km) Brightness Sun altitude
Rises 03:19:54 0° 238° (WSW) 5,927 - -9.5°
Exits shadow 03:22:13 - 234° (SW) 5,503 10.8 -9.2°
Reaches altitude 10° 03:23:20 10° 232° (SW) 5,316 10.7 -9.0°
Maximum altitude 03:39:46 48° 165° (SSE) 4,391 10.9 -6.4°
Drops below altitude 10° 04:03:28 10° 102° (ESE) 7,404 13.5 -2.7°
Sets 04:09:25 0° 98° (E) 8,317 14.3 -1.8°
